Regional Weather Roundup
Issued by NWS Nashville, TN

Current Version | Previous Version | Text Only | Print | Product List | Glossary On
Versions: 1 2 3 4 5 6 7 8 9 10 11 12 13 14 15 16 17 18 19 20 21 22 23 24 25 26 27 28 29 30 31 32 33 34 35 36 37 38 39 40 41 42 43 44 45 46 47 48 49 50
460 ASUS44 KOHX 182310 RWROHX MIDDLE TENNESSEE HOURLY WEATHER ROUNDUP NATIONAL WEATHER SERVICE NASHVILLE TN 600 PM CDT SUN APR 18 2021 NOTE: "FAIR" INDICATES FEW OR NO CLOUDS BELOW 12,000 FEET WITH NO SIGNIFICANT WEATHER AND/OR OBSTRUCTIONS TO VISIBILITY. * THESE REPORTS ARE NOT UNDER NWS QUALITY CONTROL AND MAY NOT REPORT WEATHER SUCH AS PRECIPITATION AND FOG. TNZ005>011-023>034-057-059-062>066-078-080-190000 ...NORTHERN MIDDLE TENNESSEE... CITY SKY/WX TMP DP RH WIND PRES REMARKS CLARKSVILLE CLOUDY 61 41 47 NW6 29.90R CROSSVILLE CLOUDY 59 37 44 N5 29.88F DICKSON CLOUDY 59 41 51 NW5 29.90R LEBANON CLOUDY 63 43 48 SW6 29.86F LIVINGSTON CLOUDY 61 36 39 CALM 29.87S NASHVILLE CLOUDY 63 40 42 SW3 29.89F PORTLAND CLOUDY 61 41 48 CALM 29.88S ROCKWOOD CLOUDY 61 36 39 CALM 29.86F SMYRNA CLOUDY 62 44 51 NW6 29.90F SPARTA CLOUDY 63 41 45 CALM 29.87F SPRINGFIELD CLOUDY 61 45 55 NW5 29.88S WEST NASHVILLE CLOUDY 63 43 48 SW3 29.87S $$ TNZ056-058-060-061-075>077-079-093>097-190000 ...SOUTHERN MIDDLE TENNESSEE... CITY SKY/WX TMP DP RH WIND PRES REMARKS COLUMBIA CLOUDY 61 39 44 VRB5 29.88S FAYETTEVILLE CLOUDY 61 43 51 W7 29.91S LAWRENCEBURG CLOUDY 61 41 48 W9 29.90S LEWISBURG CLOUDY 63 43 48 CALM 29.89S MCMINNVILLE CLOUDY 61 41 48 W5 29.87F MURFREESBORO MOSUNNY 63 41 45 N5 29.87S PULASKI CLOUDY 63 43 48 NW8 29.89S SHELBYVILLE CLOUDY 63 43 48 CALM 29.88S TULLAHOMA CLOUDY 61 43 51 W6 29.88S WINCHESTER CLOUDY 63 41 45 VRB6 29.88R $$ ...KEY TO REMARKS... VSB - VISIBILITY IN MILES WCI - WIND CHILL INDEX HX - HEAT INDEX

USA.gov is the U.S. government's official web portal to all federal, state and local government web resources and services.